Location: Wavehorne
(51.0500°N, 0.8333°E)
Time: 17:41:46
(UTC+00:00)

SL-16 R/B - Pass Details

Date: 20 June 2021
Orbit: 842 x 847 km, 71.0° (Epoch: 02 August)

Event Time Altitude Azimuth Distance (km) Brightness Sun altitude
Exits shadow 00:20:09 19° 214° (SSW) 1,886 3.5 -15.4°
Maximum altitude 00:24:16 81° 301° (WNW) 860 2.2 -15.3°
Drops below altitude 10° 00:29:58 10° 29° (NNE) 2,474 5.8 -15.2°
Sets 00:32:25 0° 30° (NNE) 3,413 6.7 -15.1°
